Weather History for Fairbanks Ft. Wainwright, AK

Change the Weather History Date:

Friday, October 19, 2012

  Actual Average Record
Temperature  
Mean Temperature 12 °F -  
Max Temperature 17 °F 25 °F 55 °F (2013)
Min Temperature 8 °F 12 °F 8 °F (2000)
Degree Days  
Heating Degree Days 52    
Moisture  
Dew Point 11 °F    
Average Humidity 87    
Maximum Humidity 93    
Minimum Humidity 79    
Precipitation  
Precipitation 0.00 in - - ()
Snow  
Snow 0.00 in - - ()
Snow Depth 4.00 in    
Sea Level Pressure  
Sea Level Pressure 30.24 in    
Wind  
Wind Speed 2 mph (East)    
Max Wind Speed 6 mph    
Max Gust Speed -    
Visibility 9 miles    
Events Fog    
Averages and records for this station are not official NWS values.
T = Trace of Precipitation, MM = Missing Value Source: NWS Daily Summary

Daily Weather History Graph

Daily Weather History Graph

Search for Another Location

Airport:

Trip Planner

Search our weather history database for the weather conditions in past years. The results will help you decide how hot, cold, wet, or windy it might be!

Date:

Astronomy

Oct. 19, 2012 Rise Set
Actual Time 8:57 AM AKDT 6:11 PM AKDT
Civil Twilight 8:06 AM AKDT 7:02 PM AKDT
Nautical Twilight 7:09 AM AKDT 7:59 PM AKDT
Astronomical Twilight 6:12 AM AKDT 8:56 PM AKDT
Moon 3:24 PM AKDT (10/19) 8:28 PM AKDT (10/19)
Length of Visible Light 10h 55m
Length of Day
9h 13m
Waxing Crescent, 25% of the Moon is Illuminated
Oct 19
Waxing Crescent
Oct 21
First Quarter
Oct 29
Full
Nov 6
Last Quarter
Nov 13
New

Hourly Weather History & Observations

Time (AKDT) Temp. Windchill Dew Point Humidity Pressure Visibility Wind Dir Wind Speed Gust Speed Precip Events Conditions
12:56 AM 15.1 °F - 12.9 °F 91% 30.12 in 10.0 mi Calm Calm - N/A   Clear
1:56 AM 16.0 °F - 12.9 °F 88% 30.13 in 10.0 mi Calm Calm - N/A   Mostly Cloudy
2:56 AM 16.0 °F 7.4 °F 12.9 °F 88% 30.14 in 10.0 mi ENE 5.8 mph - N/A   Overcast
3:56 AM 16.0 °F 10.4 °F 12.9 °F 88% 30.15 in 10.0 mi ENE 3.5 mph - N/A   Overcast
4:56 AM 15.1 °F - 12.0 °F 88% 30.15 in 10.0 mi Calm Calm - N/A   Overcast
5:56 AM 14.0 °F - 10.9 °F 88% 30.16 in 10.0 mi Calm Calm - N/A   Overcast
6:25 AM 14.0 °F 8.2 °F 10.4 °F 86% 30.13 in 7.0 mi ENE 3.5 mph - N/A   Overcast
6:55 AM 14.0 °F 8.2 °F 10.4 °F 86% 30.16 in 7.0 mi ENE 3.5 mph - N/A   Mostly Cloudy
7:55 AM 10.4 °F - 8.6 °F 92% 30.19 in 7.0 mi Variable 1.2 mph - N/A   Mostly Cloudy
8:55 AM 12.2 °F - 8.6 °F 85% 30.19 in 7.0 mi Variable 1.2 mph - N/A   Overcast
9:55 AM 12.2 °F 2.9 °F 8.6 °F 85% 30.22 in 7.0 mi ENE 5.8 mph - N/A   Overcast
10:33 AM 14.0 °F 6.5 °F 10.4 °F 86% 30.21 in 7.0 mi ENE 4.6 mph - N/A   Overcast
10:47 AM 14.0 °F 6.5 °F 10.4 °F 86% 30.21 in 0.5 mi ENE 4.6 mph - N/A Fog Light Freezing Fog
10:55 AM 15.8 °F 8.6 °F 12.2 °F 86% 30.25 in 1.0 mi ENE 4.6 mph - N/A   Overcast
11:25 AM 15.8 °F 10.2 °F 12.2 °F 86% 30.21 in 5.0 mi East 3.5 mph - N/A   Overcast
11:55 AM 15.8 °F 10.2 °F 12.2 °F 86% 30.25 in 7.0 mi ENE 3.5 mph - N/A   Mostly Cloudy
12:55 PM 15.8 °F 10.2 °F 12.2 °F 86% 30.26 in 13.0 mi ESE 3.5 mph - N/A   Scattered Clouds
1:55 PM 17.6 °F 12.3 °F 14.0 °F 86% 30.27 in 13.0 mi SSE 3.5 mph - N/A   Scattered Clouds
2:55 PM 17.6 °F - 15.8 °F 93% 30.28 in 13.0 mi Calm Calm - N/A Fog Scattered Clouds
3:55 PM 17.6 °F - 15.8 °F 93% 30.29 in 13.0 mi Calm Calm - N/A   Scattered Clouds
4:55 PM 17.6 °F - 15.8 °F 93% 30.30 in 13.0 mi Calm Calm - N/A   Partly Cloudy
5:55 PM 15.8 °F - 12.2 °F 86% 30.31 in 13.0 mi Calm Calm - N/A   Partly Cloudy
6:55 PM 17.6 °F - 12.2 °F 79% 30.32 in 7.0 mi Calm Calm - N/A   Clear
7:55 PM 8.6 °F - 6.8 °F 92% 30.34 in 7.0 mi Calm Calm - N/A   Clear
8:55 PM 8.6 °F - 3.2 °F 79% 30.36 in 7.0 mi Calm Calm - N/A   Clear
10:56 PM 10.0 °F 1.8 °F 6.1 °F 84% 30.39 in 10.0 mi East 4.6 mph - N/A   Overcast
11:56 PM 10.0 °F 3.6 °F 6.1 °F 84% 30.40 in 10.0 mi ENE 3.5 mph - N/A   Overcast